Starlink 32877

operational
NORAD ID: 62960 Int'l Des: 2025-029 Owner: SPXS Country: US Constellation: starlink
LEOCIRCULAR

About Starlink 32877

Description loading...

Live Position

Loading 3D Globe...

Upcoming Passes

Altitude History

Altitude vs Time

uPlot chart will show altitude changes over time

Two-Line Element Set

1 62960U 25029N 26035.18215354 .00030575 00000-0 10392-2 0 9993
2 62960 53.1605 28.3609 0001585 115.4440 244.6725 15.30232021 56168
Epoch: Feb 4, 2026 • Age: 4 hours

Current Status

Altitude 493.3 km
Velocity 7.62 km/s
Sub-Earth Point -49.66°S, 60.23°E
Launch Date Feb 11, 2025
Age 0.9 years
Type internet

Technical Details

Classification Payload
Mass 730.00 kg
Dry Mass 700.00 kg
Total Mass 730.00 kg
Length 0.30 m
Diameter 4.10 m
Span 29.00 m
Shape Box + pan
Manufacturer SPXS
Bus Type Starlink V2M
Phase Status In Orbit
Owner/State SPXS/US

Large Constellations

Loading constellations...